Simultaneous Nadir Overpasses (SNOs) Predictions

Prediction of SNOs between METOP-A and NOAA-19 Satellite Orbit:

Table of predicted SNOs for the next 14.0 days since TLE Epoch: 7/18/2020
Index Date (METOP-A) Time (METOP-A) Lat,Lon (METOP-A) SZA (METOP-A ) Date (NOAA-19) Time (NOAA-19) Lat,Lon (NOAA-19) SZA (NOAA-19 ) Distance(km) Time Diff (sec)
1 07/27/2020 15:13:18 80.61, -34.76 61.77 07/27/2020 15:12:14 80.62, -34.91 61.77 3.02 64
2 07/27/2020 16:03:59 -80.61, 132.61 118.22 07/27/2020 16:03:18 -80.61, 132.60 118.23 0.31 41
3 07/27/2020 16:54:40 80.60, -60.24 61.77 07/27/2020 16:54:14 80.61, -60.21 61.78 1.76 26
4 07/27/2020 17:45:21 -80.60, 107.13 118.22 07/27/2020 17:45:18 -80.60, 107.30 118.21 3.10 3
5 07/27/2020 18:36:01 80.61, -85.40 61.81 07/27/2020 18:36:14 80.61, -85.51 61.80 2.19 13
6 07/27/2020 19:26:43 -80.59, 81.64 118.22 07/27/2020 19:27:19 -80.61, 81.64 118.20 2.07 36
7 07/27/2020 20:17:23 80.60,-110.89 61.81 07/27/2020 20:18:14 80.60,-110.82 61.82 1.33 51
